Location: Casteau
(50.5142°N, 4.0161°E)
Time: 21:00:56
(UTC+00:00)

Tiros 1 - Pass Details

Date: 06 August 2021
Orbit: 630 x 663 km, 48.4° (Epoch: 28 September)

Event Time Altitude Azimuth Distance (km) Brightness Sun altitude
Rises 18:29:44 0° 265° (W) 2,988 12.0 6.5°
Reaches altitude 10° 18:32:05 10° 263° (W) 2,072 11.1 6.1°
Maximum altitude 18:36:51 70° 180° (S) 699 7.4 5.4°
Drops below altitude 10° 18:41:34 10° 98° (E) 2,053 9.1 4.7°
Sets 18:43:53 0° 96° (E) 2,957 9.9 4.4°
